Time,TemperatureF,DewpointF,PressureIn,WindDirection,WindDirectionDegrees,WindSpeedMPH,WindSpeedGustMPH,Humidity,HourlyPrecipIn,Conditions,Clouds,dailyrainin,SoftwareType,DateUTC
2013-04-18 00:05:00,59.4,56.5,30.18,SE,132,0.0,5.0,90,0.00,,,0.00,Wunderground v.1.15,2013-04-18 04:05:00,
2013-04-18 00:10:00,59.3,56.4,30.18,SE,132,0.0,5.0,90,0.00,,,0.00,Wunderground v.1.15,2013-04-18 04:10:00,
2013-04-18 00:15:00,59.3,56.4,30.17,SE,137,1.0,1.0,90,0.00,,,0.00,Wunderground v.1.15,2013-04-18 04:15:00,
2013-04-18 00:20:00,59.5,56.3,30.17,SE,144,2.0,2.0,89,0.00,,,0.00,Wunderground v.1.15,2013-04-18 04:20:00,
2013-04-18 00:30:00,59.8,56.2,30.17,SE,142,2.0,5.0,88,0.00,,,0.00,Wunderground v.1.15,2013-04-18 04:30:00,
2013-04-18 00:35:00,59.9,56.3,30.17,ESE,118,2.0,2.0,88,0.00,,,0.00,Wunderground v.1.15,2013-04-18 04:35:00,
2013-04-18 00:40:00,60.2,56.3,30.17,SE,138,2.0,3.0,87,0.00,,,0.00,Wunderground v.1.15,2013-04-18 04:40:00,
2013-04-18 00:45:00,60.3,56.1,30.17,South,173,2.0,5.0,86,0.00,,,0.00,Wunderground v.1.15,2013-04-18 04:45:00,
2013-04-18 00:55:00,60.6,56.1,30.16,South,182,2.0,5.0,85,0.00,,,0.00,Wunderground v.1.15,2013-04-18 04:55:00,
2013-04-18 01:05:00,60.5,56.3,30.16,ENE,77,2.0,5.0,86,0.00,,,0.00,Wunderground v.1.15,2013-04-18 05:05:00,
2013-04-18 01:10:00,60.2,56.0,30.16,NE,38,2.0,5.0,86,0.00,,,0.00,Wunderground v.1.15,2013-04-18 05:10:00,
2013-04-18 01:15:00,60.0,56.1,30.16,ESE,120,2.0,2.0,87,0.00,,,0.00,Wunderground v.1.15,2013-04-18 05:15:00,
2013-04-18 01:20:00,59.7,56.1,30.16,ENE,71,1.0,5.0,88,0.00,,,0.00,Wunderground v.1.15,2013-04-18 05:20:00,
2013-04-18 01:25:00,59.5,56.3,30.15,SW,229,1.0,1.0,89,0.00,,,0.00,Wunderground v.1.15,2013-04-18 05:25:00,
2013-04-18 01:30:00,59.3,56.1,30.15,ESE,103,1.0,5.0,89,0.00,,,0.00,Wunderground v.1.15,2013-04-18 05:30:00,
2013-04-18 01:35:00,59.2,56.0,30.15,SSE,168,1.0,1.0,89,0.00,,,0.00,Wunderground v.1.15,2013-04-18 05:35:00,
2013-04-18 01:40:00,59.0,56.1,30.15,SSE,168,1.0,5.0,90,0.00,,,0.00,Wunderground v.1.15,2013-04-18 05:40:00,
2013-04-18 01:45:00,58.9,55.7,30.15,SSE,168,0.0,5.0,89,0.00,,,0.00,Wunderground v.1.15,2013-04-18 05:45:00,
2013-04-18 01:50:00,58.7,55.8,30.14,SSE,168,0.0,5.0,90,0.00,,,0.00,Wunderground v.1.15,2013-04-18 05:50:00,
2013-04-18 01:55:00,58.6,55.7,30.14,SSE,168,0.0,5.0,90,0.00,,,0.00,Wunderground v.1.15,2013-04-18 05:55:00,
2013-04-18 02:05:00,58.7,55.8,30.14,SSE,162,1.0,1.0,90,0.00,,,0.00,Wunderground v.1.15,2013-04-18 06:05:00,
2013-04-18 02:10:00,58.7,55.8,30.15,SSE,162,0.0,5.0,90,0.00,,,0.00,Wunderground v.1.15,2013-04-18 06:10:00,
2013-04-18 02:15:00,58.6,55.7,30.15,SSE,162,0.0,5.0,90,0.00,,,0.00,Wunderground v.1.15,2013-04-18 06:15:00,
2013-04-18 02:25:00,58.7,55.8,30.15,SSW,192,1.0,1.0,90,0.00,,,0.00,Wunderground v.1.15,2013-04-18 06:25:00,
2013-04-18 02:30:00,58.8,55.6,30.15,SSW,192,1.0,5.0,89,0.00,,,0.00,Wunderground v.1.15,2013-04-18 06:30:00,
2013-04-18 02:35:00,59.0,55.8,30.15,South,176,1.0,5.0,89,0.00,,,0.00,Wunderground v.1.15,2013-04-18 06:35:00,
2013-04-18 02:40:00,59.3,55.7,30.16,South,173,1.0,5.0,88,0.00,,,0.00,Wunderground v.1.15,2013-04-18 06:40:00,
2013-04-18 02:45:00,59.6,55.7,30.16,SSE,147,1.0,1.0,87,0.00,,,0.00,Wunderground v.1.15,2013-04-18 06:45:00,
2013-04-18 02:50:00,59.8,55.9,30.16,SSE,155,1.0,5.0,87,0.00,,,0.00,Wunderground v.1.15,2013-04-18 06:50:00,
2013-04-18 02:55:00,60.0,55.8,30.16,SE,134,1.0,1.0,86,0.00,,,0.00,Wunderground v.1.15,2013-04-18 06:55:00,
2013-04-18 03:05:00,60.5,56.0,30.16,South,175,2.0,5.0,85,0.00,,,0.00,Wunderground v.1.15,2013-04-18 07:05:00,
2013-04-18 03:10:00,60.6,56.1,30.16,South,190,2.0,5.0,85,0.00,,,0.00,Wunderground v.1.15,2013-04-18 07:10:00,
2013-04-18 03:15:00,60.6,56.1,30.16,SSE,163,2.0,5.0,85,0.00,,,0.00,Wunderground v.1.15,2013-04-18 07:15:00,
2013-04-18 03:20:00,60.6,56.1,30.16,SSW,211,2.0,5.0,85,0.00,,,0.00,Wunderground v.1.15,2013-04-18 07:20:00,
2013-04-18 03:25:00,60.7,55.8,30.16,SSE,155,2.0,2.0,84,0.00,,,0.00,Wunderground v.1.15,2013-04-18 07:25:00,
2013-04-18 03:30:00,60.8,55.9,30.17,SSW,207,2.0,3.0,84,0.00,,,0.00,Wunderground v.1.15,2013-04-18 07:30:00,
2013-04-18 03:35:00,60.8,55.9,30.16,SW,230,2.0,2.0,84,0.00,,,0.00,Wunderground v.1.15,2013-04-18 07:35:00,
2013-04-18 03:40:00,60.7,56.2,30.17,SSW,200,2.0,5.0,85,0.00,,,0.00,Wunderground v.1.15,2013-04-18 07:40:00,
2013-04-18 03:45:00,60.6,56.1,30.17,SSW,197,2.0,5.0,85,0.00,,,0.00,Wunderground v.1.15,2013-04-18 07:45:00,
2013-04-18 03:50:00,60.7,56.2,30.17,South,169,2.0,5.0,85,0.00,,,0.00,Wunderground v.1.15,2013-04-18 07:50:00,
2013-04-18 03:55:00,60.8,56.3,30.17,SSW,202,2.0,2.0,85,0.00,,,0.00,Wunderground v.1.15,2013-04-18 07:55:00,
2013-04-18 04:05:00,60.7,56.2,30.16,South,173,1.0,5.0,85,0.00,,,0.00,Wunderground v.1.15,2013-04-18 08:05:00,
2013-04-18 04:15:00,60.6,56.1,30.17,SSE,165,3.0,3.0,85,0.00,,,0.00,Wunderground v.1.15,2013-04-18 08:15:00,
2013-04-18 04:20:00,60.6,56.4,30.17,SSW,196,2.0,4.0,86,0.00,,,0.00,Wunderground v.1.15,2013-04-18 08:20:00,
2013-04-18 04:25:00,60.6,56.4,30.17,SSW,205,2.0,2.0,86,0.00,,,0.00,Wunderground v.1.15,2013-04-18 08:25:00,
2013-04-18 04:30:00,60.5,56.6,30.17,SSW,208,3.0,3.0,87,0.00,,,0.00,Wunderground v.1.15,2013-04-18 08:30:00,
2013-04-18 04:35:00,60.5,56.6,30.17,SW,234,3.0,5.0,87,0.00,,,0.00,Wunderground v.1.15,2013-04-18 08:35:00,
2013-04-18 04:40:00,60.4,56.5,30.17,SW,221,2.0,5.0,87,0.00,,,0.00,Wunderground v.1.15,2013-04-18 08:40:00,
2013-04-18 04:45:00,60.3,56.7,30.17,SW,221,2.0,5.0,88,0.00,,,0.00,Wunderground v.1.15,2013-04-18 08:45:00,
2013-04-18 04:50:00,60.4,56.8,30.16,SSW,211,3.0,5.0,88,0.00,,,0.00,Wunderground v.1.15,2013-04-18 08:50:00,
2013-04-18 04:55:00,60.3,56.7,30.16,SSW,192,3.0,5.0,88,0.00,,,0.00,Wunderground v.1.15,2013-04-18 08:55:00,
2013-04-18 05:05:00,60.2,56.6,30.16,South,186,3.0,3.0,88,0.00,,,0.00,Wunderground v.1.15,2013-04-18 09:05:00,
2013-04-18 05:10:00,60.1,56.8,30.16,SW,222,2.0,5.0,89,0.00,,,0.00,Wunderground v.1.15,2013-04-18 09:10:00,
2013-04-18 05:15:00,60.0,56.4,30.16,ESE,116,2.0,5.0,88,0.00,,,0.00,Wunderground v.1.15,2013-04-18 09:15:00,
2013-04-18 05:20:00,59.2,56.0,30.16,SE,138,2.0,5.0,89,0.00,,,0.00,Wunderground v.1.15,2013-04-18 09:20:00,
2013-04-18 05:25:00,58.7,56.1,30.16,South,190,2.0,2.0,91,0.00,,,0.00,Wunderground v.1.15,2013-04-18 09:25:00,
2013-04-18 05:30:00,58.5,56.2,30.16,SE,146,2.0,5.0,92,0.00,,,0.00,Wunderground v.1.15,2013-04-18 09:30:00,
2013-04-18 05:35:00,58.6,56.6,30.16,SW,220,3.0,3.0,93,0.00,,,0.00,Wunderground v.1.15,2013-04-18 09:35:00,
2013-04-18 05:40:00,58.7,56.7,30.16,SE,138,2.0,5.0,93,0.00,,,0.00,Wunderground v.1.15,2013-04-18 09:40:00,
2013-04-18 05:50:00,58.4,56.1,30.16,ESE,115,2.0,5.0,92,0.00,,,0.00,Wunderground v.1.15,2013-04-18 09:50:00,
2013-04-18 05:55:00,58.0,56.0,30.16,North,9,2.0,2.0,93,0.00,,,0.00,Wunderground v.1.15,2013-04-18 09:55:00,
2013-04-18 06:05:00,57.7,56.0,30.16,ENE,71,2.0,2.0,94,0.00,,,0.00,Wunderground v.1.15,2013-04-18 10:05:00,
2013-04-18 06:10:00,57.7,56.0,30.16,North,355,2.0,5.0,94,0.00,,,0.00,Wunderground v.1.15,2013-04-18 10:10:00,
2013-04-18 06:15:00,57.7,56.0,30.17,ESE,105,1.0,5.0,94,0.00,,,0.00,Wunderground v.1.15,2013-04-18 10:15:00,
2013-04-18 06:20:00,57.7,56.0,30.16,NNE,32,1.0,5.0,94,0.00,,,0.00,Wunderground v.1.15,2013-04-18 10:20:00,
2013-04-18 06:25:00,57.7,56.0,30.16,ESE,109,2.0,2.0,94,0.00,,,0.00,Wunderground v.1.15,2013-04-18 10:25:00,
2013-04-18 06:30:00,57.7,56.0,30.17,WSW,244,1.0,5.0,94,0.00,,,0.00,Wunderground v.1.15,2013-04-18 10:30:00,
2013-04-18 06:35:00,57.8,56.4,30.17,ESE,106,2.0,5.0,95,0.00,,,0.00,Wunderground v.1.15,2013-04-18 10:35:00,
2013-04-18 06:40:00,58.1,56.7,30.16,SE,132,3.0,5.0,95,0.00,,,0.00,Wunderground v.1.15,2013-04-18 10:40:00,
2013-04-18 06:45:00,58.2,56.8,30.16,SE,138,3.0,3.0,95,0.00,,,0.00,Wunderground v.1.15,2013-04-18 10:45:00,
2013-04-18 06:50:00,58.3,56.9,30.16,South,170,2.0,5.0,95,0.00,,,0.00,Wunderground v.1.15,2013-04-18 10:50:00,
2013-04-18 06:55:00,58.3,56.9,30.17,SE,128,2.0,5.0,95,0.00,,,0.00,Wunderground v.1.15,2013-04-18 10:55:00,
2013-04-18 07:05:00,58.5,56.8,30.16,SSE,148,3.0,3.0,94,0.00,,,0.00,Wunderground v.1.15,2013-04-18 11:05:00,
2013-04-18 07:10:00,58.1,56.4,30.17,ESE,117,2.0,5.0,94,0.00,,,0.00,Wunderground v.1.15,2013-04-18 11:10:00,
2013-04-18 07:15:00,57.6,55.9,30.17,ESE,115,1.0,5.0,94,0.00,,,0.00,Wunderground v.1.15,2013-04-18 11:15:00,
2013-04-18 07:20:00,57.2,55.8,30.17,SSW,194,2.0,5.0,95,0.00,,,0.00,Wunderground v.1.15,2013-04-18 11:20:00,
2013-04-18 07:25:00,57.3,56.2,30.17,SSE,148,3.0,5.0,96,0.00,,,0.00,Wunderground v.1.15,2013-04-18 11:25:00,
2013-04-18 07:30:00,57.6,56.5,30.17,SSW,210,3.0,5.0,96,0.00,,,0.00,Wunderground v.1.15,2013-04-18 11:30:00,
2013-04-18 07:35:00,57.7,56.6,30.17,South,181,2.0,5.0,96,0.00,,,0.00,Wunderground v.1.15,2013-04-18 11:35:00,
2013-04-18 07:40:00,58.0,56.9,30.17,SSW,211,2.0,5.0,96,0.00,,,0.00,Wunderground v.1.15,2013-04-18 11:40:00,
2013-04-18 07:45:00,58.3,57.2,30.17,WSW,248,3.0,3.0,96,0.00,,,0.00,Wunderground v.1.15,2013-04-18 11:45:00,
2013-04-18 07:50:00,58.4,57.3,30.18,South,179,3.0,5.0,96,0.00,,,0.00,Wunderground v.1.15,2013-04-18 11:50:00,
2013-04-18 07:55:00,58.4,57.0,30.18,South,183,3.0,5.0,95,0.00,,,0.00,Wunderground v.1.15,2013-04-18 11:55:00,
2013-04-18 08:05:00,58.5,57.1,30.18,South,182,4.0,6.0,95,0.00,,,0.00,Wunderground v.1.15,2013-04-18 12:05:00,
2013-04-18 08:10:00,58.7,57.3,30.18,SSE,157,4.0,6.0,95,0.00,,,0.00,Wunderground v.1.15,2013-04-18 12:10:00,
2013-04-18 08:15:00,58.8,57.4,30.18,SW,216,4.0,4.0,95,0.00,,,0.00,Wunderground v.1.15,2013-04-18 12:15:00,
2013-04-18 08:20:00,59.0,57.6,30.18,SSE,153,3.0,5.0,95,0.00,,,0.00,Wunderground v.1.15,2013-04-18 12:20:00,
2013-04-18 08:25:00,59.1,57.4,30.17,South,189,3.0,3.0,94,0.00,,,0.00,Wunderground v.1.15,2013-04-18 12:25:00,
2013-04-18 08:30:00,59.2,57.5,30.17,SW,219,3.0,5.0,94,0.00,,,0.00,Wunderground v.1.15,2013-04-18 12:30:00,
2013-04-18 08:35:00,59.2,57.5,30.17,SSE,147,4.0,4.0,94,0.00,,,0.00,Wunderground v.1.15,2013-04-18 12:35:00,
2013-04-18 08:40:00,59.3,57.6,30.17,SSE,161,4.0,5.0,94,0.00,,,0.00,Wunderground v.1.15,2013-04-18 12:40:00,
2013-04-18 08:50:00,59.4,57.7,30.18,SE,146,4.0,5.0,94,0.00,,,0.00,Wunderground v.1.15,2013-04-18 12:50:00,
2013-04-18 08:55:00,59.5,57.5,30.18,SSW,211,4.0,4.0,93,0.00,,,0.00,Wunderground v.1.15,2013-04-18 12:55:00,
2013-04-18 09:05:00,59.8,57.8,30.18,WSW,239,4.0,4.0,93,0.00,,,0.00,Wunderground v.1.15,2013-04-18 13:05:00,
2013-04-18 09:10:00,59.9,57.9,30.18,SSE,159,4.0,5.0,93,0.00,,,0.00,Wunderground v.1.15,2013-04-18 13:10:00,
2013-04-18 09:15:00,60.0,57.7,30.18,South,173,3.0,5.0,92,0.00,,,0.00,Wunderground v.1.15,2013-04-18 13:15:00,
2013-04-18 09:20:00,60.0,57.7,30.18,SSE,163,3.0,5.0,92,0.00,,,0.00,Wunderground v.1.15,2013-04-18 13:20:00,
2013-04-18 09:25:00,60.2,57.9,30.18,South,189,3.0,3.0,92,0.00,,,0.00,Wunderground v.1.15,2013-04-18 13:25:00,
2013-04-18 09:30:00,60.5,58.2,30.18,NW,305,3.0,5.0,92,0.00,,,0.00,Wunderground v.1.15,2013-04-18 13:30:00,
2013-04-18 09:35:00,60.7,58.4,30.18,SW,223,3.0,3.0,92,0.00,,,0.00,Wunderground v.1.15,2013-04-18 13:35:00,
2013-04-18 09:40:00,60.9,58.3,30.18,SSW,202,3.0,6.0,91,0.00,,,0.00,Wunderground v.1.15,2013-04-18 13:40:00,
2013-04-18 09:45:00,60.9,58.3,30.18,South,173,4.0,5.0,91,0.00,,,0.00,Wunderground v.1.15,2013-04-18 13:45:00,
2013-04-18 09:50:00,61.0,58.4,30.18,SSW,213,5.0,7.0,91,0.00,,,0.00,Wunderground v.1.15,2013-04-18 13:50:00,
2013-04-18 09:55:00,61.1,58.1,30.18,SSE,148,5.0,5.0,90,0.00,,,0.00,Wunderground v.1.15,2013-04-18 13:55:00,
2013-04-18 10:05:00,61.6,58.0,30.18,SSW,202,4.0,4.0,88,0.00,,,0.00,Wunderground v.1.15,2013-04-18 14:05:00,
2013-04-18 10:10:00,61.8,57.9,30.18,WSW,254,4.0,5.0,87,0.00,,,0.00,Wunderground v.1.15,2013-04-18 14:10:00,
2013-04-18 10:15:00,62.1,58.2,30.18,SSE,148,3.0,3.0,87,0.00,,,0.00,Wunderground v.1.15,2013-04-18 14:15:00,
2013-04-18 10:20:00,62.4,58.5,30.18,South,186,3.0,5.0,87,0.00,,,0.00,Wunderground v.1.15,2013-04-18 14:20:00,
2013-04-18 10:25:00,62.7,58.5,30.18,SW,229,3.0,3.0,86,0.00,,,0.00,Wunderground v.1.15,2013-04-18 14:25:00,
2013-04-18 10:30:00,62.7,58.5,30.18,SW,222,3.0,5.0,86,0.00,,,0.00,Wunderground v.1.15,2013-04-18 14:30:00,
2013-04-18 10:35:00,63.0,58.7,30.18,WSW,252,3.0,3.0,86,0.00,,,0.00,Wunderground v.1.15,2013-04-18 14:35:00,
2013-04-18 10:40:00,63.4,58.5,30.18,SW,223,2.0,5.0,84,0.00,,,0.00,Wunderground v.1.15,2013-04-18 14:40:00,
2013-04-18 10:45:00,63.6,59.0,30.18,SE,144,2.0,5.0,85,0.00,,,0.00,Wunderground v.1.15,2013-04-18 14:45:00,
2013-04-18 10:50:00,63.8,58.9,30.18,WSW,252,1.0,5.0,84,0.00,,,0.00,Wunderground v.1.15,2013-04-18 14:50:00,
2013-04-18 10:55:00,63.7,58.8,30.18,SW,234,1.0,5.0,84,0.00,,,0.00,Wunderground v.1.15,2013-04-18 14:55:00,
2013-04-18 11:05:00,63.4,58.8,30.18,WSW,240,2.0,5.0,85,0.00,,,0.00,Wunderground v.1.15,2013-04-18 15:05:00,
2013-04-18 11:10:00,63.4,58.8,30.18,WSW,254,2.0,5.0,85,0.00,,,0.00,Wunderground v.1.15,2013-04-18 15:10:00,
2013-04-18 11:15:00,63.5,58.6,30.18,ESE,123,1.0,1.0,84,0.00,,,0.00,Wunderground v.1.15,2013-04-18 15:15:00,
2013-04-18 11:20:00,63.9,58.6,30.18,SSW,209,1.0,2.0,83,0.00,,,0.00,Wunderground v.1.15,2013-04-18 15:20:00,
2013-04-18 11:25:00,63.9,58.0,30.18,SSW,198,2.0,5.0,81,0.00,,,0.00,Wunderground v.1.15,2013-04-18 15:25:00,
2013-04-18 11:30:00,63.7,57.8,30.18,SE,136,3.0,5.0,81,0.00,,,0.00,Wunderground v.1.15,2013-04-18 15:30:00,
2013-04-18 11:35:00,63.9,57.6,30.18,South,175,3.0,5.0,80,0.00,,,0.00,Wunderground v.1.15,2013-04-18 15:35:00,
2013-04-18 11:40:00,64.0,57.4,30.18,WNW,302,3.0,5.0,79,0.00,,,0.00,Wunderground v.1.15,2013-04-18 15:40:00,
2013-04-18 11:45:00,64.4,57.4,30.18,West,271,3.0,7.0,78,0.00,,,0.00,Wunderground v.1.15,2013-04-18 15:45:00,
2013-04-18 11:50:00,64.9,57.2,30.18,WSW,249,4.0,7.0,76,0.00,,,0.00,Wunderground v.1.15,2013-04-18 15:50:00,
2013-04-18 11:55:00,65.2,56.7,30.18,WSW,242,4.0,5.0,74,0.00,,,0.00,Wunderground v.1.15,2013-04-18 15:55:00,
2013-04-18 12:05:00,65.2,56.7,30.18,SW,229,5.0,7.0,74,0.00,,,0.00,Wunderground v.1.15,2013-04-18 16:05:00,
2013-04-18 12:10:00,65.6,56.7,30.18,SW,217,4.0,7.0,73,0.00,,,0.00,Wunderground v.1.15,2013-04-18 16:10:00,
2013-04-18 12:15:00,65.7,56.4,30.18,WSW,240,4.0,4.0,72,0.00,,,0.00,Wunderground v.1.15,2013-04-18 16:15:00,
2013-04-18 12:20:00,66.2,56.5,30.18,SW,235,5.0,6.0,71,0.00,,,0.00,Wunderground v.1.15,2013-04-18 16:20:00,
2013-04-18 12:25:00,66.8,57.1,30.17,SSE,153,3.0,5.0,71,0.00,,,0.00,Wunderground v.1.15,2013-04-18 16:25:00,
2013-04-18 12:30:00,67.1,56.2,30.17,ESE,107,3.0,8.0,68,0.00,,,0.00,Wunderground v.1.15,2013-04-18 16:30:00,
2013-04-18 12:35:00,66.8,55.9,30.17,WSW,238,5.0,5.0,68,0.00,,,0.00,Wunderground v.1.15,2013-04-18 16:35:00,
2013-04-18 12:40:00,67.0,56.1,30.17,SW,222,5.0,8.0,68,0.00,,,0.00,Wunderground v.1.15,2013-04-18 16:40:00,
2013-04-18 12:45:00,67.4,56.5,30.17,East,91,5.0,7.0,68,0.00,,,0.00,Wunderground v.1.15,2013-04-18 16:45:00,
2013-04-18 12:50:00,67.7,56.8,30.17,SSW,199,4.0,7.0,68,0.00,,,0.00,Wunderground v.1.15,2013-04-18 16:50:00,
2013-04-18 12:55:00,68.5,56.3,30.17,East,92,4.0,4.0,65,0.00,,,0.00,Wunderground v.1.15,2013-04-18 16:55:00,
2013-04-18 13:05:00,68.8,57.0,30.17,West,277,5.0,5.0,66,0.00,,,0.00,Wunderground v.1.15,2013-04-18 17:05:00,
2013-04-18 13:10:00,69.1,56.4,30.16,SSW,212,4.0,5.0,64,0.00,,,0.00,Wunderground v.1.15,2013-04-18 17:10:00,
2013-04-18 13:15:00,68.9,56.2,30.16,WSW,246,5.0,5.0,64,0.00,,,0.00,Wunderground v.1.15,2013-04-18 17:15:00,
2013-04-18 13:20:00,69.0,56.7,30.16,ESE,103,4.0,5.0,65,0.00,,,0.00,Wunderground v.1.15,2013-04-18 17:20:00,
2013-04-18 13:25:00,69.1,56.0,30.16,SW,234,4.0,8.0,63,0.00,,,0.00,Wunderground v.1.15,2013-04-18 17:25:00,
2013-04-18 13:30:00,68.5,56.3,30.16,SW,220,4.0,8.0,65,0.00,,,0.00,Wunderground v.1.15,2013-04-18 17:30:00,
2013-04-18 13:35:00,68.7,56.5,30.15,ENE,65,3.0,3.0,65,0.00,,,0.00,Wunderground v.1.15,2013-04-18 17:35:00,
2013-04-18 13:40:00,69.6,56.9,30.15,ENE,71,3.0,5.0,64,0.00,,,0.00,Wunderground v.1.15,2013-04-18 17:40:00,
2013-04-18 13:45:00,69.9,56.3,30.15,SSE,164,3.0,5.0,62,0.00,,,0.00,Wunderground v.1.15,2013-04-18 17:45:00,
2013-04-18 13:50:00,69.4,55.8,30.15,WSW,245,4.0,6.0,62,0.00,,,0.00,Wunderground v.1.15,2013-04-18 17:50:00,
2013-04-18 13:55:00,69.8,55.7,30.15,West,263,3.0,9.0,61,0.00,,,0.00,Wunderground v.1.15,2013-04-18 17:55:00,
2013-04-18 14:05:00,68.8,55.2,30.14,ENE,70,2.0,5.0,62,0.00,,,0.00,Wunderground v.1.15,2013-04-18 18:05:00,
2013-04-18 14:10:00,68.1,55.5,30.14,South,178,2.0,5.0,64,0.00,,,0.00,Wunderground v.1.15,2013-04-18 18:10:00,
2013-04-18 14:15:00,68.0,55.4,30.15,SE,142,2.0,2.0,64,0.00,,,0.00,Wunderground v.1.15,2013-04-18 18:15:00,
2013-04-18 14:20:00,67.9,55.3,30.14,SW,225,2.0,5.0,64,0.00,,,0.00,Wunderground v.1.15,2013-04-18 18:20:00,
2013-04-18 14:25:00,68.8,55.7,30.14,SSW,211,2.0,2.0,63,0.00,,,0.00,Wunderground v.1.15,2013-04-18 18:25:00,
2013-04-18 14:35:00,69.3,54.8,30.14,SSW,205,3.0,5.0,60,0.00,,,0.00,Wunderground v.1.15,2013-04-18 18:35:00,
2013-04-18 14:40:00,69.0,55.0,30.14,West,269,3.0,5.0,61,0.00,,,0.00,Wunderground v.1.15,2013-04-18 18:40:00,
2013-04-18 14:45:00,68.9,55.3,30.14,SSW,201,3.0,5.0,62,0.00,,,0.00,Wunderground v.1.15,2013-04-18 18:45:00,
2013-04-18 14:50:00,68.9,55.3,30.14,North,355,3.0,5.0,62,0.00,,,0.00,Wunderground v.1.15,2013-04-18 18:50:00,
2013-04-18 14:55:00,68.6,55.1,30.14,SSE,155,3.0,3.0,62,0.00,,,0.00,Wunderground v.1.15,2013-04-18 18:55:00,
2013-04-18 15:05:00,69.6,55.6,30.13,SSW,207,3.0,3.0,61,0.00,,,0.00,Wunderground v.1.15,2013-04-18 19:05:00,
2013-04-18 15:10:00,70.7,56.1,30.13,West,269,2.0,6.0,60,0.00,,,0.00,Wunderground v.1.15,2013-04-18 19:10:00,
2013-04-18 15:15:00,70.9,55.4,30.13,SSW,211,4.0,7.0,58,0.00,,,0.00,Wunderground v.1.15,2013-04-18 19:15:00,
2013-04-18 15:20:00,70.2,55.2,30.12,SSW,200,4.0,7.0,59,0.00,,,0.00,Wunderground v.1.15,2013-04-18 19:20:00,
2013-04-18 15:25:00,70.3,55.8,30.11,SW,222,3.0,3.0,60,0.00,,,0.00,Wunderground v.1.15,2013-04-18 19:25:00,
2013-04-18 15:30:00,70.7,55.2,30.11,WNW,290,3.0,5.0,58,0.00,,,0.00,Wunderground v.1.15,2013-04-18 19:30:00,
2013-04-18 15:35:00,71.5,54.5,30.11,East,93,4.0,4.0,55,0.00,,,0.00,Wunderground v.1.15,2013-04-18 19:35:00,
2013-04-18 15:40:00,71.8,54.3,30.11,SSW,211,4.0,5.0,54,0.00,,,0.00,Wunderground v.1.15,2013-04-18 19:40:00,
2013-04-18 15:45:00,71.5,54.5,30.10,SSW,209,5.0,10.0,55,0.00,,,0.00,Wunderground v.1.15,2013-04-18 19:45:00,
2013-04-18 15:50:00,71.3,54.3,30.10,SSE,168,5.0,10.0,55,0.00,,,0.00,Wunderground v.1.15,2013-04-18 19:50:00,
2013-04-18 15:55:00,71.1,54.1,30.10,SW,222,5.0,6.0,55,0.00,,,0.00,Wunderground v.1.15,2013-04-18 19:55:00,
2013-04-18 16:05:00,71.1,54.6,30.09,South,179,5.0,5.0,56,0.00,,,0.00,Wunderground v.1.15,2013-04-18 20:05:00,
2013-04-18 16:10:00,71.4,54.9,30.09,ENE,78,4.0,5.0,56,0.00,,,0.00,Wunderground v.1.15,2013-04-18 20:10:00,
2013-04-18 16:15:00,71.5,54.5,30.08,SSW,194,5.0,8.0,55,0.00,,,0.00,Wunderground v.1.15,2013-04-18 20:15:00,
2013-04-18 16:20:00,71.6,54.6,30.08,SSE,148,6.0,8.0,55,0.00,,,0.00,Wunderground v.1.15,2013-04-18 20:20:00,
2013-04-18 16:25:00,72.3,54.7,30.08,West,270,4.0,4.0,54,0.00,,,0.00,Wunderground v.1.15,2013-04-18 20:25:00,
2013-04-18 16:30:00,71.9,54.9,30.07,SSW,209,3.0,5.0,55,0.00,,,0.00,Wunderground v.1.15,2013-04-18 20:30:00,
2013-04-18 16:35:00,71.5,54.5,30.07,WSW,238,2.0,5.0,55,0.00,,,0.00,Wunderground v.1.15,2013-04-18 20:35:00,
2013-04-18 16:40:00,71.2,54.7,30.07,WSW,257,2.0,5.0,56,0.00,,,0.00,Wunderground v.1.15,2013-04-18 20:40:00,
2013-04-18 16:50:00,71.1,55.1,30.07,South,180,1.0,3.0,57,0.00,,,0.00,Wunderground v.1.15,2013-04-18 20:50:00,
2013-04-18 16:55:00,70.6,54.6,30.07,SSW,200,3.0,5.0,57,0.00,,,0.00,Wunderground v.1.15,2013-04-18 20:55:00,
2013-04-18 17:05:00,70.1,55.1,30.07,NNW,342,3.0,3.0,59,0.00,,,0.00,Wunderground v.1.15,2013-04-18 21:05:00,
2013-04-18 17:10:00,70.0,55.0,30.07,South,174,3.0,5.0,59,0.00,,,0.00,Wunderground v.1.15,2013-04-18 21:10:00,
2013-04-18 17:15:00,69.9,55.4,30.06,WSW,243,3.0,3.0,60,0.00,,,0.00,Wunderground v.1.15,2013-04-18 21:15:00,
2013-04-18 17:20:00,70.0,55.5,30.06,WNW,296,2.0,5.0,60,0.00,,,0.00,Wunderground v.1.15,2013-04-18 21:20:00,
2013-04-18 17:25:00,70.0,55.5,30.06,South,178,2.0,2.0,60,0.00,,,0.00,Wunderground v.1.15,2013-04-18 21:25:00,
2013-04-18 17:30:00,69.8,55.3,30.06,SE,126,2.0,5.0,60,0.00,,,0.00,Wunderground v.1.15,2013-04-18 21:30:00,
2013-04-18 17:35:00,69.4,55.4,30.06,SW,234,3.0,3.0,61,0.00,,,0.00,Wunderground v.1.15,2013-04-18 21:35:00,
2013-04-18 17:40:00,69.2,55.2,30.06,SW,215,3.0,5.0,61,0.00,,,0.00,Wunderground v.1.15,2013-04-18 21:40:00,
2013-04-18 17:45:00,69.2,55.2,30.07,SW,221,3.0,3.0,61,0.00,,,0.00,Wunderground v.1.15,2013-04-18 21:45:00,
2013-04-18 17:50:00,69.1,55.1,30.07,South,182,4.0,6.0,61,0.00,,,0.00,Wunderground v.1.15,2013-04-18 21:50:00,
2013-04-18 17:55:00,69.0,55.0,30.07,SSW,196,3.0,3.0,61,0.00,,,0.00,Wunderground v.1.15,2013-04-18 21:55:00,
2013-04-18 18:05:00,68.8,55.2,30.06,SW,216,4.0,4.0,62,0.00,,,0.00,Wunderground v.1.15,2013-04-18 22:05:00,
2013-04-18 18:10:00,68.8,55.2,30.06,South,184,2.0,5.0,62,0.00,,,0.00,Wunderground v.1.15,2013-04-18 22:10:00,
2013-04-18 18:15:00,68.8,55.2,30.06,South,183,3.0,3.0,62,0.00,,,0.00,Wunderground v.1.15,2013-04-18 22:15:00,
2013-04-18 18:20:00,68.5,55.4,30.06,SSE,155,3.0,5.0,63,0.00,,,0.00,Wunderground v.1.15,2013-04-18 22:20:00,
2013-04-18 18:25:00,68.3,55.2,30.05,SSE,157,2.0,5.0,63,0.00,,,0.00,Wunderground v.1.15,2013-04-18 22:25:00,
2013-04-18 18:30:00,68.3,55.6,30.05,SSW,206,2.0,5.0,64,0.00,,,0.00,Wunderground v.1.15,2013-04-18 22:30:00,
2013-04-18 18:35:00,68.4,55.7,30.05,SSW,200,2.0,5.0,64,0.00,,,0.00,Wunderground v.1.15,2013-04-18 22:35:00,
2013-04-18 18:40:00,68.5,55.8,30.05,SSW,198,3.0,5.0,64,0.00,,,0.00,Wunderground v.1.15,2013-04-18 22:40:00,
2013-04-18 18:45:00,68.7,56.0,30.05,ESE,117,3.0,3.0,64,0.00,,,0.00,Wunderground v.1.15,2013-04-18 22:45:00,
2013-04-18 18:50:00,68.5,55.8,30.04,South,179,3.0,5.0,64,0.00,,,0.00,Wunderground v.1.15,2013-04-18 22:50:00,
2013-04-18 18:55:00,68.3,56.1,30.04,SSE,149,4.0,4.0,65,0.00,,,0.00,Wunderground v.1.15,2013-04-18 22:55:00,
2013-04-18 19:05:00,68.5,56.3,30.04,SSW,205,2.0,5.0,65,0.00,,,0.00,Wunderground v.1.15,2013-04-18 23:05:00,
2013-04-18 19:10:00,68.8,56.6,30.04,West,274,1.0,5.0,65,0.00,,,0.00,Wunderground v.1.15,2013-04-18 23:10:00,
2013-04-18 19:20:00,69.0,56.7,30.05,SW,222,1.0,5.0,65,0.00,,,0.00,Wunderground v.1.15,2013-04-18 23:20:00,
2013-04-18 19:25:00,68.9,57.1,30.05,SW,222,1.0,1.0,66,0.00,,,0.00,Wunderground v.1.15,2013-04-18 23:25:00,
2013-04-18 19:30:00,68.6,57.2,30.04,South,184,1.0,5.0,67,0.00,,,0.00,Wunderground v.1.15,2013-04-18 23:30:00,
2013-04-18 19:35:00,68.3,57.3,30.03,South,184,0.0,5.0,68,0.00,,,0.00,Wunderground v.1.15,2013-04-18 23:35:00,
2013-04-18 19:40:00,68.1,57.5,30.03,South,182,0.0,5.0,69,0.00,,,0.00,Wunderground v.1.15,2013-04-18 23:40:00,
2013-04-18 19:45:00,67.8,57.7,30.03,West,271,0.0,5.0,70,0.00,,,0.00,Wunderground v.1.15,2013-04-18 23:45:00,
2013-04-18 19:50:00,67.5,57.4,30.03,West,260,1.0,5.0,70,0.00,,,0.00,Wunderground v.1.15,2013-04-18 23:50:00,
2013-04-18 19:55:00,67.3,57.6,30.03,WSW,245,0.0,5.0,71,0.00,,,0.00,Wunderground v.1.15,2013-04-18 23:55:00,
2013-04-18 20:05:00,67.0,57.3,30.03,WNW,288,1.0,5.0,71,0.00,,,0.00,Wunderground v.1.15,2013-04-19 00:05:00,
2013-04-18 20:10:00,66.9,57.2,30.04,SSE,154,1.0,5.0,71,0.00,,,0.00,Wunderground v.1.15,2013-04-19 00:10:00,
2013-04-18 20:15:00,66.8,57.5,30.03,SW,228,2.0,2.0,72,0.00,,,0.00,Wunderground v.1.15,2013-04-19 00:15:00,
2013-04-18 20:20:00,66.8,57.5,30.03,SSW,211,1.0,3.0,72,0.00,,,0.00,Wunderground v.1.15,2013-04-19 00:20:00,
2013-04-18 20:25:00,66.7,57.4,30.03,SW,225,1.0,1.0,72,0.00,,,0.00,Wunderground v.1.15,2013-04-19 00:25:00,
2013-04-18 20:30:00,66.7,57.8,30.03,SW,229,1.0,5.0,73,0.00,,,0.00,Wunderground v.1.15,2013-04-19 00:30:00,
2013-04-18 20:35:00,66.6,57.7,30.03,SW,236,0.0,5.0,73,0.00,,,0.00,Wunderground v.1.15,2013-04-19 00:35:00,
2013-04-18 20:40:00,66.5,58.0,30.03,WSW,246,1.0,5.0,74,0.00,,,0.00,Wunderground v.1.15,2013-04-19 00:40:00,
2013-04-18 20:45:00,66.3,58.5,30.03,SW,227,1.0,5.0,76,0.00,,,0.00,Wunderground v.1.15,2013-04-19 00:45:00,
2013-04-18 20:50:00,66.2,58.8,30.03,SSE,151,1.0,5.0,77,0.00,,,0.00,Wunderground v.1.15,2013-04-19 00:50:00,
2013-04-18 20:55:00,66.1,58.7,30.03,NW,325,1.0,5.0,77,0.00,,,0.00,Wunderground v.1.15,2013-04-19 00:55:00,
2013-04-18 21:05:00,65.8,59.1,30.03,SE,137,1.0,1.0,79,0.00,,,0.00,Wunderground v.1.15,2013-04-19 01:05:00,
2013-04-18 21:10:00,65.7,59.4,30.04,ESE,118,1.0,5.0,80,0.00,,,0.00,Wunderground v.1.15,2013-04-19 01:10:00,
2013-04-18 21:15:00,65.6,59.3,30.04,South,180,1.0,5.0,80,0.00,,,0.00,Wunderground v.1.15,2013-04-19 01:15:00,
2013-04-18 21:20:00,65.5,59.5,30.04,SE,143,1.0,5.0,81,0.00,,,0.00,Wunderground v.1.15,2013-04-19 01:20:00,
2013-04-18 21:25:00,65.5,59.9,30.04,South,183,1.0,5.0,82,0.00,,,0.00,Wunderground v.1.15,2013-04-19 01:25:00,
2013-04-18 21:30:00,65.4,59.8,30.04,SW,217,1.0,5.0,82,0.00,,,0.00,Wunderground v.1.15,2013-04-19 01:30:00,
2013-04-18 21:35:00,65.3,59.7,30.03,South,182,1.0,5.0,82,0.00,,,0.00,Wunderground v.1.15,2013-04-19 01:35:00,
2013-04-18 21:40:00,65.2,59.9,30.03,South,178,1.0,5.0,83,0.00,,,0.00,Wunderground v.1.15,2013-04-19 01:40:00,
2013-04-18 21:45:00,65.1,60.1,30.02,South,178,1.0,1.0,84,0.00,,,0.00,Wunderground v.1.15,2013-04-19 01:45:00,
2013-04-18 21:50:00,65.0,60.4,30.02,SW,219,1.0,2.0,85,0.00,,,0.00,Wunderground v.1.15,2013-04-19 01:50:00,
2013-04-18 22:05:00,64.0,60.1,30.03,South,186,1.0,5.0,87,0.00,,,0.01,Wunderground v.1.15,2013-04-19 02:05:00,
2013-04-18 22:10:00,63.8,60.2,30.03,West,272,2.0,5.0,88,0.00,,,0.01,Wunderground v.1.15,2013-04-19 02:10:00,
2013-04-18 22:15:00,63.7,60.1,30.03,SW,232,2.0,5.0,88,0.00,,,0.01,Wunderground v.1.15,2013-04-19 02:15:00,
2013-04-18 22:20:00,63.7,59.8,30.03,East,97,3.0,5.0,87,0.00,,,0.01,Wunderground v.1.15,2013-04-19 02:20:00,
2013-04-18 22:25:00,63.8,59.9,30.03,SSW,206,4.0,4.0,87,0.00,,,0.01,Wunderground v.1.15,2013-04-19 02:25:00,
2013-04-18 22:30:00,63.7,59.8,30.03,South,189,3.0,6.0,87,0.00,,,0.01,Wunderground v.1.15,2013-04-19 02:30:00,
2013-04-18 22:35:00,63.7,59.4,30.02,SSW,203,2.0,6.0,86,0.00,,,0.01,Wunderground v.1.15,2013-04-19 02:35:00,
2013-04-18 22:40:00,63.7,59.4,30.01,WSW,240,3.0,6.0,86,0.00,,,0.01,Wunderground v.1.15,2013-04-19 02:40:00,
2013-04-18 22:45:00,63.6,59.3,30.01,WSW,240,3.0,5.0,86,0.00,,,0.01,Wunderground v.1.15,2013-04-19 02:45:00,
2013-04-18 22:50:00,63.6,59.3,30.01,WSW,238,2.0,5.0,86,0.00,,,0.01,Wunderground v.1.15,2013-04-19 02:50:00,
2013-04-18 23:05:00,63.6,59.3,30.01,South,175,3.0,5.0,86,0.00,,,0.01,Wunderground v.1.15,2013-04-19 03:05:00,
2013-04-18 23:10:00,63.7,59.1,30.01,West,270,3.0,5.0,85,0.00,,,0.01,Wunderground v.1.15,2013-04-19 03:10:00,
2013-04-18 23:20:00,63.8,59.5,30.00,South,175,2.0,7.0,86,0.00,,,0.01,Wunderground v.1.15,2013-04-19 03:20:00,
2013-04-18 23:25:00,63.8,59.5,30.00,WSW,247,3.0,3.0,86,0.00,,,0.01,Wunderground v.1.15,2013-04-19 03:25:00,
2013-04-18 23:30:00,63.7,59.4,30.00,NW,317,3.0,5.0,86,0.00,,,0.01,Wunderground v.1.15,2013-04-19 03:30:00,
2013-04-18 23:35:00,63.7,59.4,30.00,WSW,240,3.0,5.0,86,0.00,,,0.01,Wunderground v.1.15,2013-04-19 03:35:00,
2013-04-18 23:40:00,63.6,59.7,30.00,South,169,3.0,5.0,87,0.00,,,0.01,Wunderground v.1.15,2013-04-19 03:40:00,
2013-04-18 23:45:00,63.4,59.5,29.99,WSW,237,3.0,7.0,87,0.00,,,0.01,Wunderground v.1.15,2013-04-19 03:45:00,
2013-04-18 23:50:00,63.4,59.5,29.98,WSW,242,4.0,7.0,87,0.00,,,0.01,Wunderground v.1.15,2013-04-19 03:50:00,